Linden, NJ

10:23 AM EDT on June 22, 2017 (GMT -0400)
Linden

Weather History for KLDJ - April, 2013

Change the Weather History Date:

Tuesday, April 23, 2013

  Actual Average (KEWR) Record (KEWR)
Temperature  
Mean Temperature 48 °F -  
Max Temperature 53 °F 64 °F 88 °F (1996)
Min Temperature 42 °F 45 °F 32 °F (1933)
Degree Days  
Heating Degree Days 18    
Moisture  
Dew Point 37 °F    
Average Humidity 69    
Maximum Humidity 90    
Minimum Humidity 55    
Precipitation  
Precipitation 0.00 in - - ()
Sea Level Pressure  
Sea Level Pressure 30.30 in    
Wind  
Wind Speed 9 mph (NNE)    
Max Wind Speed 14 mph    
Max Gust Speed 18 mph    
Visibility 9 miles    
Events Rain    
Averages and records for this station are not official NWS values.
T = Trace of Precipitation, MM = Missing Value Source: NWS Daily Summary

Daily Weather History Graph

Daily Weather History Graph

Search for Another Location

Airport or City:

Trip Planner

Search our weather history database for the weather conditions in past years. The results will help you decide how hot, cold, wet, or windy it might be!

Date:

Astronomy

Apr. 23, 2013 Rise Set
Actual Time 6:06 AM EDT 7:44 PM EDT
Civil Twilight 5:37 AM EDT 8:13 PM EDT
Nautical Twilight 5:02 AM EDT 8:49 PM EDT
Astronomical Twilight 4:25 AM EDT 9:26 PM EDT
Moon 5:36 PM EDT (4/23) 4:33 AM EDT (4/23)
Length of Visible Light 14h 36m
Length of Day
13h 38m
Waxing Gibbous, 94% of the Moon is Illuminated
Apr 23
Waxing Gibbous
Apr 25
Full
May 2
Last Quarter
May 9
New
May 18
First Quarter

Hourly Weather History & Observations

Time (EDT) Temp. Windchill Dew Point Humidity Pressure Visibility Wind Dir Wind Speed Gust Speed Precip Events Conditions
12:15 AM 47.7 °F - 32.0 °F 55% 30.48 in 10.0 mi East 10.4 mph 17.3 mph N/A   Overcast
12:35 AM 47.5 °F - 32.0 °F 55% 30.48 in 10.0 mi East 8.1 mph 16.1 mph N/A   Overcast
12:55 AM 47.3 °F - 32.0 °F 55% 30.48 in 10.0 mi East 9.2 mph - N/A   Overcast
1:15 AM 47.1 °F - 32.5 °F 57% 30.47 in 10.0 mi East 6.9 mph - N/A   Overcast
1:35 AM 46.8 °F - 32.7 °F 58% 30.47 in 10.0 mi ENE 9.2 mph - N/A   Overcast
1:55 AM 46.0 °F 40.6 °F 33.1 °F 61% 30.47 in 10.0 mi East 11.5 mph - N/A   Overcast
2:15 AM 45.5 °F 39.6 °F 32.9 °F 61% 30.45 in 10.0 mi East 12.7 mph 17.3 mph N/A   Overcast
2:35 AM 45.0 °F 38.9 °F 32.2 °F 61% 30.44 in 10.0 mi East 12.7 mph - N/A   Overcast
2:55 AM 44.8 °F 39.9 °F 32.9 °F 63% 30.44 in 10.0 mi East 9.2 mph - N/A   Overcast
3:15 AM 45.0 °F 38.5 °F 33.3 °F 64% 30.43 in 10.0 mi East 13.8 mph - N/A   Overcast
3:35 AM 44.8 °F 38.7 °F 33.4 °F 64% 30.42 in 10.0 mi East 12.7 mph - N/A   Overcast
3:55 AM 44.8 °F 40.4 °F 34.0 °F 66% 30.42 in 10.0 mi ENE 8.1 mph - N/A   Overcast
4:15 AM 44.6 °F 39.7 °F 33.8 °F 66% 30.41 in 10.0 mi ENE 9.2 mph - N/A   Scattered Clouds
4:35 AM 44.1 °F 39.0 °F 33.8 °F 67% 30.41 in 10.0 mi ENE 9.2 mph - N/A   Scattered Clouds
4:55 AM 43.9 °F 37.9 °F 33.8 °F 68% 30.40 in 10.0 mi ENE 11.5 mph 16.1 mph N/A   Scattered Clouds
5:15 AM 43.5 °F 38.3 °F 32.9 °F 66% 30.40 in 10.0 mi NE 9.2 mph - N/A   Scattered Clouds
5:35 AM 43.5 °F 37.9 °F 32.5 °F 65% 30.40 in 10.0 mi NNE 10.4 mph - N/A   Mostly Cloudy
5:55 AM 43.2 °F 37.0 °F 32.4 °F 66% 30.39 in 10.0 mi NNE 11.5 mph 17.3 mph N/A   Overcast
6:15 AM 42.8 °F 37.0 °F 32.0 °F 66% 30.39 in 10.0 mi NNE 10.4 mph - N/A   Overcast
6:35 AM 42.8 °F 37.0 °F 32.0 °F 66% 30.40 in 10.0 mi NNE 10.4 mph 17.3 mph N/A   Overcast
6:55 AM 42.8 °F 35.8 °F 32.0 °F 66% 30.39 in 10.0 mi NE 13.8 mph 17.3 mph N/A   Overcast
7:15 AM 43.2 °F 37.4 °F 32.2 °F 65% 30.39 in 10.0 mi NNE 10.4 mph - N/A   Overcast
7:35 AM 43.2 °F 36.6 °F 32.4 °F 66% 30.39 in 10.0 mi NE 12.7 mph 18.4 mph N/A   Overcast
7:55 AM 43.7 °F 39.1 °F 32.5 °F 65% 30.38 in 10.0 mi NNE 8.1 mph - N/A   Overcast
8:15 AM 43.5 °F 37.9 °F 32.4 °F 65% 30.38 in 10.0 mi NNE 10.4 mph - N/A   Overcast
8:35 AM 43.7 °F 38.6 °F 32.9 °F 66% 30.38 in 10.0 mi North 9.2 mph 16.1 mph N/A   Overcast
8:55 AM 43.9 °F 37.9 °F 33.1 °F 66% 30.37 in 10.0 mi NNE 11.5 mph 17.3 mph N/A   Overcast
9:15 AM 44.4 °F 40.0 °F 33.8 °F 66% 30.37 in 10.0 mi NNE 8.1 mph - N/A   Overcast
9:35 AM 44.6 °F 39.7 °F 34.5 °F 68% 30.37 in 10.0 mi North 9.2 mph - N/A   Overcast
9:55 AM 44.4 °F 39.5 °F 35.4 °F 71% 30.37 in 10.0 mi North 9.2 mph - N/A   Overcast
10:15 AM 44.1 °F 38.6 °F 36.7 °F 75% 30.37 in 7.0 mi NNE 10.4 mph - N/A   Overcast
10:35 AM 43.9 °F 38.3 °F 39.4 °F 84% 30.36 in 3.0 mi NE 10.4 mph - N/A Rain Light Rain
10:55 AM 43.7 °F 38.1 °F 40.1 °F 87% 30.35 in 4.0 mi NNE 10.4 mph - N/A   Light Drizzle
11:15 AM 43.7 °F 39.1 °F 40.5 °F 88% 30.35 in 3.0 mi North 8.1 mph - N/A   Light Drizzle
11:35 AM 44.1 °F 38.6 °F 40.5 °F 87% 30.34 in 4.0 mi NNE 10.4 mph - N/A   Light Drizzle
11:55 AM 44.4 °F 39.5 °F 41.4 °F 89% 30.34 in 2.5 mi NNE 9.2 mph - N/A Rain Rain
12:15 PM 44.6 °F 40.2 °F 41.7 °F 90% 30.33 in 10.0 mi NNE 8.1 mph - N/A   Overcast
12:35 PM 44.8 °F 38.7 °F 41.5 °F 88% 30.32 in 10.0 mi NNE 12.7 mph - N/A   Overcast
12:55 PM 45.3 °F 40.6 °F 41.9 °F 88% 30.30 in 7.0 mi NNE 9.2 mph - N/A   Overcast
1:15 PM 45.7 °F 40.2 °F 41.2 °F 84% 30.29 in 10.0 mi NE 11.5 mph - N/A   Overcast
1:35 PM 46.6 °F - 41.2 °F 81% 30.27 in 10.0 mi NNE 6.9 mph 16.1 mph N/A   Overcast
1:55 PM 47.3 °F - 40.8 °F 78% 30.27 in 10.0 mi NNE 10.4 mph - N/A   Overcast
2:15 PM 47.7 °F - 40.5 °F 76% 30.26 in 10.0 mi North 10.4 mph 16.1 mph N/A   Overcast
2:35 PM 48.2 °F - 40.3 °F 74% 30.25 in 10.0 mi NNE 10.4 mph - N/A   Overcast
2:55 PM 49.1 °F - 40.3 °F 72% 30.24 in 10.0 mi North 10.4 mph - N/A   Overcast
3:35 PM 49.3 °F - 40.1 °F 71% 30.23 in 10.0 mi NNE 9.2 mph - N/A   Overcast
3:55 PM 50.0 °F - 40.3 °F 69% 30.23 in 10.0 mi NNE 8.1 mph - N/A   Overcast
4:15 PM 51.1 °F - 40.6 °F 67% 30.23 in 10.0 mi NNE 9.2 mph - N/A   Overcast
4:35 PM 50.9 °F - 40.8 °F 68% 30.23 in 10.0 mi North 9.2 mph - N/A   Overcast
4:55 PM 51.3 °F - 40.6 °F 67% 30.23 in 10.0 mi North 6.9 mph - N/A   Overcast
5:15 PM 51.4 °F - 41.0 °F 68% 30.22 in 10.0 mi North 6.9 mph - N/A   Overcast
5:35 PM 52.2 °F - 41.4 °F 67% 30.20 in 10.0 mi North 6.9 mph - N/A   Overcast
5:55 PM 53.2 °F - 41.2 °F 64% 30.19 in 10.0 mi North 9.2 mph - N/A   Mostly Cloudy
6:15 PM 53.6 °F - 41.5 °F 64% 30.19 in 10.0 mi NNE 4.6 mph - N/A   Scattered Clouds
6:35 PM 53.2 °F - 41.4 °F 64% 30.19 in 10.0 mi North 5.8 mph - N/A   Mostly Cloudy
6:55 PM 53.2 °F - 41.4 °F 64% 30.17 in 10.0 mi NNE 6.9 mph - N/A   Overcast
7:15 PM 52.9 °F - 41.4 °F 65% 30.17 in 10.0 mi NNE 5.8 mph - N/A   Mostly Cloudy
7:35 PM 52.5 °F - 41.2 °F 65% 30.17 in 10.0 mi North 5.8 mph - N/A   Scattered Clouds
7:55 PM 52.7 °F - 41.2 °F 65% 30.16 in 10.0 mi NNE 4.6 mph - N/A   Mostly Cloudy
8:15 PM 52.5 °F - 41.0 °F 65% 30.14 in 10.0 mi NNE 4.6 mph - N/A   Mostly Cloudy
8:35 PM 52.2 °F - 40.8 °F 65% 30.13 in 10.0 mi NNE 5.8 mph - N/A   Mostly Cloudy
8:55 PM 52.3 °F - 40.6 °F 64% 30.13 in 10.0 mi NNE 6.9 mph - N/A   Mostly Cloudy
9:15 PM 52.7 °F - 41.0 °F 64% 30.14 in 10.0 mi North 5.8 mph - N/A   Overcast
9:35 PM 52.3 °F - 41.0 °F 65% 30.14 in 10.0 mi NW 4.6 mph - N/A   Overcast
9:55 PM 51.6 °F - 41.0 °F 67% 30.15 in 10.0 mi NW 5.8 mph - N/A   Overcast
10:15 PM 51.3 °F - 40.6 °F 67% 30.14 in 10.0 mi NW 5.8 mph - N/A   Overcast
10:35 PM 50.2 °F - 40.3 °F 69% 30.14 in 10.0 mi NW 6.9 mph - N/A   Overcast
10:55 PM 49.3 °F - 40.1 °F 71% 30.13 in 10.0 mi NW 6.9 mph - N/A   Scattered Clouds
11:15 PM 48.6 °F - 40.1 °F 73% 30.13 in 10.0 mi NW 5.8 mph - N/A   Clear
11:35 PM 47.8 °F - 39.7 °F 74% 30.13 in 10.0 mi NW 4.6 mph - N/A   Clear
11:55 PM 47.5 °F - 39.6 °F 74% 30.12 in 10.0 mi NW 4.6 mph - N/A   Clear